Regional Weather Roundup
Issued by NWS

Home | Current Version | Previous Version | Graphics & Text | Print | Product List | Glossary On
Versions: 1 2 3 4 5 6 7 8 9 10 11 12 13 14 15 16 17 18 19 20 21 22 23 24 25 26 27 28 29 30 31 32 33 34 35 36 37 38 39 40 41 42 43 44 45 46 47 48 49 50
000
ASUS43 KDMX 060404
RWRIA

WEATHER ROUNDUP FOR IOWA
NATIONAL WEATHER SERVICE DES MOINES IA
  ISSUED BY NWS QUAD CITIES IA IL
1000 PM CST THU MAR 05 2015

NOTE: "FAIR" INDICATES FEW OR NO CLOUDS BELOW 12,000 FEET WITH NO
SIGNIFICANT WEATHER AND/OR OBSTRUCTIONS TO VISIBILITY.

* - THESE STATIONS ARE NOT NWS STATIONS...THUS NOT UNDER NWS
QUALITY CONTROL.  THEY ALSO DO NOT REPORT WEATHER SUCH
AS PRECIPITATION OR FOG.

IAZ001>003-012>014-020>022-031>034-043>046-060500-
   NORTHWEST IOWA

CITY           SKY/WX    TMP DP  RH WIND       PRES   REMARKS
CARROLL *      PTCLDY    12   5  73 SE7       30.36F WCI   2
CHEROKEE *     MOCLDY    16   7  67 S10       30.30F WCI   4
DENNISON *     CLEAR     19   5  53 S14       30.32F WCI   6
LE MARS *      CLOUDY    21   9  58 S12       30.27F WCI   9
ORANGE CITY *  CLEAR     19   7  58 S10       30.25F WCI   8
SHELDON *      CLEAR     18   7  62 S17       30.24F WCI   2
SIOUX CITY     MOCLDY    23   7  50 SE13      30.29F WCI  11
SPENCER        CLEAR     16   6  65 S15       30.29F WCI   1
STORM LAKE *   CLEAR     14   5  67 S14       30.30F WCI  -1
$$

IAZ055>058-069>071-079>083-090>094-060500-
   SOUTHWEST IOWA

CITY           SKY/WX    TMP DP  RH WIND       PRES   REMARKS
ATLANTIC *     CLEAR     19   5  53 S9        30.37F WCI   9
AUDUBON *      CLEAR     18   7  62 S6        30.36F WCI   9
CLARINDA *     CLEAR     21   5  49 S8        30.43F WCI  12
COUNCIL BLFS * CLEAR     21   7  53 S13       30.34F WCI   9
CRESTON *      CLEAR     16   3  57 SE8       30.41F WCI   5
HARLAN *       CLEAR     19   5  53 S8        30.39F WCI   9
LAMONI         CLEAR     19   5  54 S7        30.44F WCI  10
RED OAK *      FAIR      21   7  53 S9        30.39F WCI  11
SHENANDOAH *   CLEAR     23   7  50 SE12      30.41S WCI  12
$$

IAZ047>049-059>061-072>074-084-060500-
   CENTRAL IOWA

CITY           SKY/WX    TMP DP  RH WIND       PRES   REMARKS
AMES           CLEAR     10   2  69 SE9       30.44F WCI  -3
ANKENY *       CLEAR     12   3  67 SE7       30.46F WCI   2
BOONE *        CLEAR     10   5  79 SE12      30.40F WCI  -4
CHARITON *     CLEAR     14   5  67 SE7       30.46F WCI   4
DES MOINES     PTCLDY    16   4  59 SE9       30.45F WCI   4
GRINNELL *     PTCLDY     6   0  76 SE7       30.48S WCI  -6
KNOXVILLE *    CLEAR     14   3  62 SE6       30.47S WCI   5
MARSHALLTOWN   PTCLDY     4  -2  76 SE8       30.46S WCI  -9
NEWTON *       PTCLDY     7   0  72 SE7       30.48S WCI  -5
PELLA *        CLEAR     10   6  82 SE6       30.50S WCI   1
PERRY *          N/A     14   7  73 SE9       30.41F WCI   2
$$

IAZ004>006-015-016-023>025-035-036-060500-
   NORTH CENTRAL IOWA

CITY           SKY/WX    TMP DP  RH WIND       PRES   REMARKS
ALGONA *       CLEAR     14  12  92 S16       30.34F WCI  -2
CLARION *      CLEAR      9   3  78 SE15      30.38F WCI  -8
ESTHERVILLE    CLEAR     13   5  70 S15       30.29F WCI  -3
FORT DODGE *   CLEAR     14   1  57 SE8       30.38F WCI   3
MASON CITY     PTCLDY     2  -3  80 S12       30.40F WCI -15
FOREST CITY *  FAIR       7   0  72 SE9       30.37F WCI  -7
WEBSTER CITY * CLEAR     10   3  72 SE14      30.38F WCI  -5
IOWA FALLS *   FAIR       2  -4  76 SE10      30.44F WCI -14
$$

IAZ007>011-017>019-026>030-037>042-050>054-066-060500-
   NORTHEAST IOWA

CITY           SKY/WX    TMP DP  RH WIND       PRES   REMARKS
CEDAR RAPIDS   MOCLDY     1  -4  79 SE5       30.50S WCI  -9
CHARLES CITY * PTCLDY     0  -6  78 S10       30.44S WCI -17
CLINTON *      PTCLDY     1  -6  71 CALM      30.56F
DECORAH *      PTCLDY     1  -6  71 S6        30.43F WCI -10
DUBUQUE        MOCLDY    -4 -10  75 S6        30.48F WCI -16
MONTICELLO *   PTCLDY    -6 -11  77 CALM      30.52R
OELWEIN *      PTCLDY    -2  -8  78 S8        30.47F WCI -17
WATERLOO       MOCLDY     0  -6  76 SE5       30.47F WCI -10
$$

IAZ064-065-067-068-078-060500-
   EAST CENTRAL IOWA

CITY           SKY/WX    TMP DP  RH WIND       PRES   REMARKS
DAVENPORT      PTCLDY     3  -4  72 S3        30.54S
IOWA CITY      MOCLDY     4  -2  76 SE5       30.54F WCI  -5
MT. PLEASANT * PTCLDY     4  -2  75 SE6       30.54S WCI  -7
MUSCATINE *    MOCLDY     7   1  78 CALM      30.57S
QUAD CITIES    PTCLDY     3  -4  72 SE3       30.55F
$$

IAZ062-063-075>077-085>089-095>099-060500-
   SOUTHEAST IOWA

CITY           SKY/WX    TMP DP  RH WIND       PRES   REMARKS
BURLINGTON     PTCLDY     7  -1  70 SE5       30.54F WCI  -2
FAIRFIELD *    PTCLDY     9  -2  61 SE8       30.52F WCI  -4
FORT MADISON * PTCLDY     9   0  66 S3        30.55S
KEOKUK *       MOCLDY    10   1  67 SE5       30.55S WCI   2
OSKALOOSA *    FAIR      10   3  76 SE9       30.50S WCI  -4
CENTERVILLE *  FAIR      12   5  73 SE7       30.50S WCI   2
OTTUMWA        CLEAR      9   1  70 SE6       30.50S WCI  -1
WASHINGTON *   PTCLDY     7   3  85 SE7       30.53S WCI  -5
$$

ABBREVIATIONS USED IN REMARKS
   TC - TEMPERATURES IN CELSIUS
  WCI - WIND CHILL INDEX
   HX - HEAT INDEX
  VSB - VISIBILITY
$$



USA.gov is the U.S. government's official web portal to all federal, state and local government web resources and services.